Flag for Brazil Weather past 2 weeks in Salvador, Bahia, Brazil

Now
79 °F

Passing clouds.


Feels Like: 81 °F
Forecast: 78 / 89 °F
Wind: 8 mph from Northeast

Location: Salvador Aeroporto

Current Time: Feb 27, 2015 at 10:03:12 PM

Latest Report: Feb 27, 2015 at 9:00 PM


Visibility: N/A

Pressure: 29.86 "Hg

Humidity: 74%

Dew point: 70 °F

Location of SalvadorLocation

Historic Weather in Salvador — Graph

°F

Salvador temperature yesterday

Maximum temperature yesterday: 82 °F (at 3:00 PM)
Minimum temperature yesterday: 43 °F (at 9:00 AM)
Average temperature yesterday: 75 °F

Past Weeks' High & Low Weather Summary

 TemperatureHumidityPressure
High86 °F (Feb 13, 12:00 PM)100% (Feb 26, 9:00 AM)30.07 "Hg (Feb 26, 9:00 AM)
Low43 °F (Feb 26, 9:00 AM)58% (Feb 14, 9:00 AM)29.80 "Hg (Feb 27, 3:00 PM)
Average80 °F75%29.93 "Hg
* Reported Feb 12 9:00 PM — Feb 27 9:00 PM, Salvador, Weather by CustomWeather, © 2015

Note: Actual official high and low records may vary slightly from our data, if they occured in-between our weather recording intervals... More about our weather records

Advertising

Salvador weather history for previous 24 hours

 ConditionsComfort  
Time TempWeatherWind HumidityBarometerVisibility
9:00 PM
Fri, Feb 27
79 °FPassing clouds.8 mph74%29.86 "HgN/A
8:00 PM79 °FPassing clouds.8 mph74%29.83 "HgN/A
7:00 PM81 °FPassing clouds.10 mph74%29.83 "HgN/A
6:00 PM81 °FPassing clouds.9 mph74%29.80 "HgN/A
5:00 PM82 °FScattered clouds.13 mph70%29.80 "HgN/A
4:00 PM82 °FScattered clouds.15 mph70%29.80 "HgN/A
3:00 PM84 °FScattered clouds.13 mph66%29.80 "HgN/A
2:00 PM84 °FScattered clouds.13 mph66%29.83 "HgN/A
1:00 PM86 °FPassing clouds.10 mph66%29.86 "HgN/A
12:00 PM86 °FPassing clouds.10 mph62%29.89 "HgN/A
11:00 AM86 °FPassing clouds.8 mph62%29.89 "HgN/A
10:00 AM84 °FScattered clouds.9 mph66%29.92 "HgN/A
9:00 AM82 °FScattered clouds.6 mph70%29.92 "HgN/A
8:00 AM79 °FScattered clouds.5 mph79%29.89 "HgN/A
7:00 AM75 °FScattered clouds.3 mph78%29.89 "HgN/A
6:00 AM73 °FScattered clouds.2 mph89%29.86 "HgN/A
5:00 AM75 °FPassing clouds.3 mph83%29.83 "HgN/A
4:00 AM75 °FPassing clouds.2 mph83%29.83 "HgN/A
3:00 AM75 °FPassing clouds.3 mph83%29.83 "HgN/A
2:00 AM75 °FPassing clouds.3 mph83%29.83 "HgN/A
1:00 AM77 °FPassing clouds.2 mph79%29.83 "HgN/A
12:00 AM77 °FPassing clouds.2 mph79%29.86 "HgN/A
11:00 PM
Thu, Feb 26
77 °FPassing clouds.5 mph79%29.86 "HgN/A
10:00 PM77 °FPassing clouds.9 mph83%29.86 "HgN/A
Weather by CustomWeather, © 2015

See weather overviewHow to use our weather pages